Content
SEND FEEDBACK

Daily
Averages
Monthly
Summary
Philippines

QUEZON CITY, PHILIPPINES


Home > Asia > Philippines
Elevation: 46 meters     Latitude: 14 39N     Longitude: 121 03E

WEATHER
 
SELECT A DAY
Number of Records: 178,098;   Date Range: 7/1/96 - 11/24/14
 
SHARE

PRINT THIS DATA

[ ← Previous Day ]
WEATHER ALMANAC - 22 MARCH, 2013
[ Next Day → ]
[ °F ]   °C
Weather ElementAverageHighLow
Temperature26.1 °C30 °C (10:00 am) (2:00 am)
Dewpoint22.3 °C29 °C (10:00 am) (7:00 pm)
Humidity79.4 %100 % (1:00 pm)67 % (8:00 am)
Barometer1010.2 hPa1011.9 hPa (8:00 am)1001.7 hPa (11:00 am)
Wind Speed7.1 km/h16.7 km/h (12:34 pm)
Weather ElementAverage
Visibility9.5 km
Wind DirectionSE (129.7 °)

Weather ElementTotal
Precipitation---
Heating Degree Days12.2 (Base 18.3)
Averaged from 32 records on 22 March, 2013
WEATHER CONDITIONS BREAKOUT
WIND DIRECTION BREAKOUT
WEATHER BY HOUR - 22 MARCH, 2013
[ °F ]   °C
Local TimeTemperatureDewpointHumidityBarometerVisibilityWind DirectionWind SpeedGust SpeedPrecipitationEventsConditions
1:00 AM27 °C22 °C74 %1010.2 hPa10 kmSE (130°)5.6 km/hPartly Cloudy
2:00 AM-17.8 °C-17.8 °C1009.5 hPa9.7 kmCalmHaze
2:00 AM26 °C23 °C83 %1009.1 hPa10 kmCalmPartly Cloudy
3:00 AM26 °C23 °C83 %1009.1 hPa10 kmWNW (290°)5.6 km/hScattered Clouds
4:00 AM27 °C21 °C70 %1008.1 hPa10 kmVariable3.7 km/hMostly Cloudy
5:00 AM17.2 °C9.7 kmNorth (10°)3.5 km/h
5:00 AM27 °C21 °C70 %1009.1 hPa10 kmVariable3.7 km/hMostly Cloudy
6:00 AM27 °C22 °C74 %1010.2 hPa10 kmSE (130°)7.4 km/hOvercast
6:20 AM26 °C23 °C83 %1010.2 hPa9 kmENE (60°)9.3 km/hRainLight Rain Showers
7:00 AM26 °C23 °C83 %1010.2 hPa10 kmEast (80°)5.6 km/hOvercast
8:00 AM27.8 °C22.8 °C67 %1011.9 hPa9.7 kmCalmHaze
8:00 AM28 °C23 °C74 %1011.2 hPa9 kmCalmMostly Cloudy
9:00 AM28 °C23 °C74 %1011.2 hPa10 kmWNW (300°)11.1 km/hMostly Cloudy
10:00 AM30 °C29 °C94 %1011.2 hPa10 kmWSW (240°)5.6 km/hMostly Cloudy
11:00 AM29.4 °C24.4 °C68 %1001.7 hPa9.7 kmWNW (290°)7.2 km/hHaze
11:00 AM30 °C24 °C70 %1011.2 hPa10 kmWNW (290°)9.3 km/hMostly Cloudy
12:00 PM29 °C24 °C74 %1011.2 hPa10 kmWNW (290°)14.8 km/hMostly Cloudy
12:34 PM27 °C25 °C89 %1010.2 hPa9 kmESE (110°)16.7 km/hRainLight Rain Showers
1:00 PM25 °C25 °C100 %1010.2 hPa8 kmNE (40°)16.7 km/hRainRain
2:00 PM26 °C25 °C94 %1010.2 hPa9 kmNorth (350°)13 km/hRainLight Rain
3:00 PM27 °C25 °C89 %1009.1 hPa9 kmNNE (30°)9.3 km/hRainLight Rain
4:00 PM27 °C26 °C94 %1009.1 hPa8 kmNNE (20°)7.4 km/hRainLight Rain
5:00 PM28.3 °C25 °C77 %1009.5 hPa8 kmEast (90°)7.2 km/hRainLight Rain
5:00 PM28 °C25 °C84 %1009.1 hPa8 kmEast (90°)7.4 km/hRainLight Rain
6:00 PM28 °C24 °C79 %1010.2 hPa10 kmEast (80°)7.4 km/hOvercast
7:00 PM28 °C24 °C79 %1010.2 hPa10 kmESE (120°)3.7 km/hOvercast
8:00 PM27.8 °C24.4 °C76 %1011.2 hPa9.7 kmSSE (150°)3.5 km/hHaze
8:00 PM28 °C24 °C79 %1011.2 hPa10 kmSSE (150°)3.7 km/hOvercast
9:00 PM28 °C24 °C79 %1011.2 hPa10 kmSSW (200°)7.4 km/hOvercast
10:00 PM28 °C24 °C79 %1011.2 hPa10 kmSE (130°)7.4 km/hMostly Cloudy
11:00 PM28.3 °C23.3 °C68 %1011.9 hPa9.7 kmESE (110°)10.8 km/hHaze
11:00 PM28 °C23 °C74 %1011.2 hPa10 kmESE (110°)11.1 km/hMostly Cloudy
Hourly data recorded from RPLL, located 0 kilometers away from Quezon City, Philippines







STORIES FROM OUR PARTNERS